星链-32012 (STARLINK-32012 )

导读

STARLINK-32012是美国SpaceX星链(Starlink)项目中的一颗第三代低轨通信卫星,于2024年6月8日发射,目前仍在轨运行。该卫星部署于近地轨道,采用Starlink v2.0 mini平台,搭载先进推进系统与激光通信技术,旨在为全球提供高速互联网服务,能助力扩展星链网络覆盖范围与稳定性,支持偏远地区宽带接入。

Basic Information
目录编号:
60027
目录名称:
STARLINK-32012
国际标识:
2024-111M
轨道中心:
EARTH
卫星名称:
星链-32012
卫星全名:
星链-32012 (STARLINK-32012 )
卫星状态:
在轨 (已飞行740 天)
发射日期:
2024-06-08 UTC
国别 :
美国 (US)
星等 :
--
Orbit Information
数据来源 国际轨道数据 AOE轨道数据
星历时间 2026-06-18T01:44:30+0800
9小时前
查看轨道信息
2026-06-12T17:00:00+0800
5天前
查看轨道信息
半长轴 6853.362km 6853.385km
偏心率 0.0001181 0.0001329
轨道倾角 53.163° 53.161°
近地点辐角 102.863° 78.066°
升交点赤经 330.752° 355.669°
平近点角 257.250° 235.617°
近地点 474.415km 474.337km
远地点 476.035km 476.159km
周期 94.106分钟 94.106分钟
每日圈数 15.301967 15.301892
Detailed Information
固有亮度:
5
最大亮度:
1.5
卫星平台:
Starlink v2.0 mini
覆盖范围:
全球
运营商:
太空探索技术公司
运营商所在国:
美国
制造商(研发单位):
太空探索技术公司
制造商所在国:
美国
使用方式:
暂无
Satellite Introduction
星链(Starlink)计划是由太空探索技术公司(SpaceX)提出的一个巨型低轨卫星互联网星座项目,计划在2019年至2024年间在太空搭建由约1.2万颗卫星组成的“星链”网络,其中1584颗将部署在地球上空550千米处的近地轨道,并从2020年开始工作。该卫星仍在工作。
2D Orbit Map
3D Orbit Map
Orbit Altitude Analysis Chart
Orbit Inclination Analysis Chart
Orbit Comprehensive Analysis Chart
View Comprehensive Chart